GSAFT EGBO-EGGP

Flight info

Callsign GSAFT
Flight time N/A
Altitude 6000
Route DCT
Aircraft C172/L-SFG/C

Departure

Time 2026-04-27 19:38
Airport Wolverhampton Halfpenny Green Airport (EGBO)

Arrival

Time N/A
Airport Liverpool John Lennon Airport (EGGP)
Time Latitude Longitude Altitude Speed Heading
2026-04-27 19:20 52.51506 -2.26163 287 ft 0 kts 280°
2026-04-27 19:23 52.51506 -2.26164 287 ft 0 kts 280°
2026-04-27 19:25 52.51506 -2.26165 287 ft 0 kts 280°
2026-04-27 19:27 52.51506 -2.26166 287 ft 0 kts 280°
2026-04-27 19:28 52.51506 -2.26167 287 ft 0 kts 280°
2026-04-27 19:29 52.51507 -2.26167 287 ft 1 kts 280°
2026-04-27 19:29 52.51506 -2.26182 287 ft 1 kts 255°
2026-04-27 19:29 52.51493 -2.26174 287 ft 7 kts 123°
2026-04-27 19:30 52.51458 -2.26092 287 ft 13 kts 128°
2026-04-27 19:30 52.51388 -2.26011 287 ft 15 kts 173°
2026-04-27 19:30 52.51306 -2.25956 287 ft 10 kts 162°
2026-04-27 19:30 52.51281 -2.25870 287 ft 5 kts 132°
2026-04-27 19:31 52.51273 -2.25861 287 ft 5 kts 151°
2026-04-27 19:31 52.51266 -2.25855 287 ft 2 kts 144°
2026-04-27 19:31 52.51265 -2.25851 287 ft 0 kts 111°
2026-04-27 19:33 52.51265 -2.25850 287 ft 0 kts 111°
2026-04-27 19:35 52.51263 -2.25843 287 ft 2 kts 111°
2026-04-27 19:35 52.51251 -2.25787 287 ft 8 kts 106°
2026-04-27 19:36 52.51246 -2.25688 287 ft 6 kts 71°
2026-04-27 19:36 52.51262 -2.25625 287 ft 6 kts 46°
2026-04-27 19:36 52.51303 -2.25637 287 ft 9 kts 336°
2026-04-27 19:36 52.51342 -2.25664 287 ft 0 kts 336°
2026-04-27 19:37 52.51450 -2.25743 287 ft 38 kts 335°
2026-04-27 19:37 52.51817 -2.26013 316 ft 70 kts 334°
2026-04-27 19:37 52.52262 -2.26345 503 ft 69 kts 336°
2026-04-27 19:37 52.52701 -2.26632 693 ft 67 kts 337°
2026-04-27 19:38 52.53170 -2.26860 866 ft 73 kts 343°
2026-04-27 19:38 52.53658 -2.27093 1068 ft 73 kts 343°
2026-04-27 19:38 52.54169 -2.27376 1240 ft 81 kts 339°
2026-04-27 19:38 52.54680 -2.27751 1449 ft 82 kts 334°
2026-04-27 19:39 52.55211 -2.28118 1661 ft 83 kts 341°
2026-04-27 19:39 52.55743 -2.28420 1857 ft 79 kts 341°
2026-04-27 19:39 52.56260 -2.28720 1971 ft 77 kts 340°
2026-04-27 19:39 52.56764 -2.29034 2092 ft 75 kts 338°
2026-04-27 19:40 52.57238 -2.29336 2203 ft 75 kts 338°
2026-04-27 19:40 52.57727 -2.29692 2293 ft 77 kts 335°
2026-04-27 19:40 52.58219 -2.30065 2371 ft 80 kts 333°
2026-04-27 19:40 52.58723 -2.30511 2386 ft 85 kts 329°
2026-04-27 19:41 52.59231 -2.30998 2442 ft 83 kts 331°
2026-04-27 19:41 52.59737 -2.31436 2500 ft 82 kts 332°
2026-04-27 19:41 52.60255 -2.31840 2540 ft 84 kts 336°
2026-04-27 19:41 52.60789 -2.32224 2581 ft 84 kts 335°
2026-04-27 19:42 52.61333 -2.32657 2568 ft 92 kts 333°
2026-04-27 19:42 52.61912 -2.33197 2573 ft 96 kts 330°
2026-04-27 19:42 52.62505 -2.33744 2559 ft 101 kts 331°
2026-04-27 19:42 52.63134 -2.34313 2536 ft 103 kts 332°
2026-04-27 19:43 52.63776 -2.34788 2574 ft 100 kts 340°
2026-04-27 19:43 52.64424 -2.35183 2600 ft 99 kts 338°
2026-04-27 19:43 52.65062 -2.35612 2607 ft 99 kts 338°
2026-04-27 19:43 52.65690 -2.36064 2533 ft 98 kts 337°
2026-04-27 19:44 52.66309 -2.36492 2510 ft 93 kts 338°
2026-04-27 19:44 52.66911 -2.36852 2487 ft 92 kts 340°
2026-04-27 19:44 52.67512 -2.37238 2423 ft 94 kts 338°
2026-04-27 19:44 52.68120 -2.37638 2386 ft 93 kts 339°